QPF
0.03 0.04 0.04 0.04 0.04 0.06 0.06 0.07 0.06 0.04 0.04 0.04 0.03 0.02 0.01 0.01 0.01 0.02 0.02 0.01 0.01 0.00 0.00 0.00 0.00 0.01 0.01 0.01 0.02 0.05 0.07 0.09 0.07 0.04 0.02 0.03 0.04 0.06
0.03 0.04 0.04 0.03 0.04 0.04 0.05 0.05 0.05 0.05 0.05 0.04 0.03 0.03 0.02 0.01 0.02 0.02 0.01 0.01 0.01 0.01 0.00 0.00 0.01 0.01 0.01 0.01 0.01 0.02 0.04 0.06 0.07 0.05 0.04 0.03 0.03 0.03
0.04 0.04 0.05 0.04 0.04 0.03 0.03 0.04 0.04 0.04 0.05 0.05 0.03 0.03 0.04 0.03 0.02 0.02 0.01 0.01 0.01 0.01 0.00 0.00 0.00 0.00 0.00 0.01 0.01 0.01 0.01 0.02 0.04 0.05 0.04 0.04 0.03 0.03
0.08 0.07 0.05 0.04 0.04 0.03 0.02 0.02 0.03 0.03 0.03 0.04 0.03 0.03 0.03 0.03 0.03 0.03 0.02 0.01 0.01 0.01 0.00 0.00 0.00 0.00 0.01 0.01 0.01 0.01 0.01 0.01 0.02 0.03 0.04 0.04 0.03 0.03
0.08 0.06 0.04 0.04 0.03 0.02 0.02 0.02 0.03 0.03 0.04 0.03 0.03 0.02 0.03 0.02 0.02 0.01 0.01 0.01 0.01 0.01 0.01 0.01 0.01 0.01 0.01 0.01 0.01 0.01 0.01 0.01 0.01 0.01 0.02 0.04 0.04 0.03
0.06 0.05 0.04 0.04 0.03 0.03 0.02 0.03 0.03 0.03 0.04 0.03 0.03 0.03 0.02 0.02 0.02 0.02 0.02 0.01 0.01 0.01 0.01 0.01 0.01 0.01 0.00 0.01 0.01 0.01 0.01 0.01 0.01 0.01 0.01 0.02 0.03 0.03
0.04 0.04 0.02 0.03 0.03 0.03 0.02 0.02 0.03 0.03 0.04 0.04 0.03 0.03 0.02 0.02 0.02 0.03 0.03 0.02 0.01 0.01 0.01 0.01 0.01 0.01 0.01 0.01 0.00 0.01 0.01 0.01 0.01 0.01 0.01 0.02 0.02 0.02
0.05 0.04 0.03 0.02 0.02 0.02 0.02 0.02 0.03 0.03 0.04 0.03 0.03 0.03 0.02 0.03 0.04 0.03 0.03 0.03 0.02 0.01 0.01 0.01 0.01 0.02 0.02 0.01 0.01 0.00 0.01 0.01 0.01 0.01 0.01 0.02 0.02 0.02
0.06 0.05 0.03 0.03 0.04 0.03 0.02 0.02 0.02 0.02 0.02 0.03 0.03 0.04 0.04 0.04 0.05 0.04 0.03 0.03 0.03 0.01 0.02 0.01 0.01 0.01 0.01 0.01 0.01 0.00 0.00 0.01 0.01 0.01 0.01 0.01 0.01 0.02
0.04 0.04 0.04 0.04 0.04 0.04 0.03 0.03 0.02 0.02 0.02 0.02 0.03 0.04 0.05 0.06 0.06 0.04 0.05 0.04 0.03 0.02 0.03 0.02 0.02 0.02 0.01 0.01 0.01 0.01 0.01 0.01 0.01 0.01 0.01 0.01 0.01 0.01
0.03 0.03 0.03 0.04 0.04 0.03 0.04 0.04 0.05 0.04 0.02 0.02 0.02 0.03 0.03 0.04 0.04 0.03 0.03 0.03 0.02 0.02 0.03 0.03 0.02 0.02 0.02 0.02 0.01 0.01 0.01 0.00 0.00 0.00 0.01 0.01 0.01 0.01
0.03 0.02 0.02 0.02 0.03 0.03 0.03 0.04 0.05 0.05 0.03 0.02 0.01 0.01 0.03 0.03 0.03 0.02 0.02 0.02 0.02 0.02 0.02 0.03 0.03 0.04 0.04 0.03 0.02 0.02 0.02 0.01 0.01 0.01 0.01 0.01 0.02 0.02
0.03 0.02 0.02 0.02 0.02 0.03 0.03 0.04 0.05 0.05 0.04 0.03 0.03 0.04 0.04 0.04 0.02 0.02 0.02 0.02 0.02 0.02 0.02 0.04 0.05 0.06 0.06 0.06 0.06 0.04 0.03 0.02 0.02 0.02 0.01 0.02 0.03 0.03
0.04 0.04 0.03 0.03 0.02 0.03 0.03 0.04 0.04 0.04 0.03 0.02 0.03 0.04 0.05 0.05 0.04 0.03 0.02 0.02 0.02 0.03 0.04 0.05 0.05 0.06 0.06 0.07 0.08 0.07 0.05 0.04 0.03 0.03 0.03 0.05 0.07 0.07
0.07 0.10 0.10 0.09 0.07 0.07 0.07 0.07 0.06 0.05 0.05 0.04 0.03 0.04 0.05 0.04 0.03 0.03 0.02 0.02 0.01 0.01 0.02 0.03 0.04 0.04 0.06 0.07 0.07 0.07 0.08 0.08 0.06 0.05 0.05 0.06 0.06 0.06
0.04 0.05 0.07 0.08 0.07 0.07 0.07 0.07 0.07 0.07 0.06 0.05 0.05 0.06 0.04 0.04 0.04 0.03 0.03 0.02 0.02 0.02 0.02 0.02 0.04 0.05 0.05 0.06 0.08 0.08 0.08 0.09 0.08 0.08 0.07 0.06 0.05 0.04
0.04 0.03 0.03 0.04 0.04 0.04 0.04 0.04 0.04 0.04 0.03 0.03 0.04 0.04 0.04 0.05 0.05 0.03 0.03 0.03 0.02 0.02 0.02 0.03 0.04 0.05 0.06 0.07 0.07 0.07 0.07 0.07 0.07 0.09 0.09 0.08 0.07 0.06
0.03 0.03 0.02 0.02 0.02 0.02 0.03 0.04 0.03 0.03 0.02 0.02 0.03 0.04 0.04 0.04 0.05 0.04 0.03 0.03 0.03 0.02 0.01 0.02 0.04 0.05 0.06 0.07 0.07 0.06 0.06 0.07 0.08 0.08 0.07 0.09 0.10 0.09
0.02 0.02 0.02 0.02 0.02 0.02 0.02 0.02 0.02 0.02 0.02 0.02 0.03 0.03 0.04 0.04 0.04 0.03 0.03 0.03 0.03 0.02 0.02 0.03 0.04 0.05 0.05 0.05 0.06 0.06 0.06 0.07 0.09 0.09 0.08 0.09 0.10 0.11
0.01 0.01 0.01 0.02 0.02 0.02 0.02 0.02 0.01 0.02 0.03 0.02 0.03 0.03 0.03 0.04 0.04 0.03 0.03 0.03 0.03 0.02 0.03 0.03 0.05 0.06 0.05 0.05 0.06 0.05 0.05 0.07 0.09 0.09 0.08 0.07 0.08 0.09
0.03 0.01 0.01 0.01 0.01 0.02 0.02 0.02 0.02 0.02 0.03 0.03 0.03 0.04 0.04 0.04 0.04 0.03 0.03 0.04 0.03 0.03 0.03 0.03 0.04 0.05 0.05 0.05 0.04 0.05 0.06 0.06 0.07 0.10 0.10 0.09 0.07 0.08
0.03 0.02 0.01 0.01 0.01 0.01 0.01 0.02 0.02 0.02 0.03 0.03 0.03 0.04 0.05 0.05 0.05 0.04 0.04 0.04 0.04 0.03 0.03 0.04 0.05 0.05 0.05 0.04 0.04 0.05 0.05 0.05 0.04 0.06 0.09 0.10 0.08 0.07
0.02 0.01 0.01 0.02 0.02 0.02 0.02 0.02 0.02 0.02 0.02 0.03 0.04 0.04 0.04 0.05 0.07 0.06 0.05 0.04 0.04 0.03 0.03 0.04 0.04 0.05 0.04 0.04 0.04 0.04 0.03 0.04 0.03 0.03 0.05 0.05 0.05 0.06
MSLP
1012.83 1012.68 1012.56 1012.44 1012.28 1012.06 1011.74 1011.32 1010.83 1010.26 1009.67 1009.08 1008.53 1008.05 1007.65 1007.34 1007.10 1006.91 1006.77 1006.66 1006.55 1006.44 1006.32 1006.21 1006.10 1006.01 1005.93 1005.87 1005.82 1005.79 1005.77 1005.75 1005.73 1005.73 1005.73 1005.75 1005.79 1005.86
1012.21 1012.09 1012.01 1011.93 1011.82 1011.64 1011.38 1011.02 1010.57 1010.05 1009.49 1008.94 1008.41 1007.93 1007.51 1007.15 1006.85 1006.59 1006.35 1006.12 1005.90 1005.67 1005.46 1005.26 1005.09 1004.95 1004.86 1004.80 1004.78 1004.78 1004.80 1004.82 1004.84 1004.86 1004.88 1004.90 1004.93 1004.99
1011.66 1011.58 1011.54 1011.51 1011.45 1011.32 1011.11 1010.80 1010.40 1009.94 1009.43 1008.91 1008.40 1007.93 1007.50 1007.10 1006.74 1006.40 1006.06 1005.72 1005.37 1005.02 1004.69 1004.39 1004.13 1003.93 1003.79 1003.72 1003.71 1003.74 1003.80 1003.87 1003.93 1003.99 1004.04 1004.08 1004.11 1004.16
1011.25 1011.19 1011.19 1011.20 1011.18 1011.10 1010.94 1010.68 1010.34 1009.93 1009.46 1008.98 1008.50 1008.04 1007.60 1007.18 1006.78 1006.37 1005.94 1005.49 1005.03 1004.55 1004.09 1003.67 1003.30 1003.02 1002.82 1002.71 1002.68 1002.72 1002.80 1002.91 1003.02 1003.12 1003.21 1003.28 1003.33 1003.38
1010.97 1010.94 1010.96 1011.00 1011.01 1010.98 1010.86 1010.65 1010.35 1009.98 1009.56 1009.11 1008.66 1008.22 1007.79 1007.37 1006.93 1006.47 1005.98 1005.45 1004.88 1004.29 1003.70 1003.16 1002.67 1002.28 1001.98 1001.81 1001.73 1001.75 1001.83 1001.96 1002.11 1002.26 1002.39 1002.50 1002.58 1002.64
1010.81 1010.78 1010.81 1010.87 1010.90 1010.89 1010.81 1010.64 1010.38 1010.05 1009.67 1009.26 1008.84 1008.42 1008.01 1007.59 1007.15 1006.67 1006.14 1005.54 1004.90 1004.21 1003.52 1002.85 1002.24 1001.73 1001.32 1001.05 1000.90 1000.87 1000.93 1001.06 1001.23 1001.40 1001.57 1001.72 1001.83 1001.91
1010.70 1010.66 1010.69 1010.74 1010.79 1010.79 1010.73 1010.58 1010.35 1010.05 1009.71 1009.33 1008.95 1008.56 1008.18 1007.78 1007.36 1006.88 1006.34 1005.71 1005.02 1004.26 1003.48 1002.71 1001.98 1001.34 1000.82 1000.44 1000.20 1000.09 1000.10 1000.20 1000.36 1000.55 1000.75 1000.93 1001.07 1001.18
1010.57 1010.51 1010.52 1010.56 1010.60 1010.60 1010.54 1010.41 1010.20 1009.93 1009.61 1009.26 1008.91 1008.56 1008.21 1007.85 1007.46 1007.00 1006.47 1005.85 1005.13 1004.34 1003.50 1002.64 1001.82 1001.07 1000.44 999.94 999.59 999.40 999.34 999.39 999.52 999.70 999.90 1000.10 1000.27 1000.40
1010.38 1010.29 1010.26 1010.28 1010.30 1010.29 1010.22 1010.09 1009.89 1009.63 1009.33 1009.00 1008.68 1008.36 1008.05 1007.73 1007.37 1006.96 1006.46 1005.86 1005.15 1004.35 1003.48 1002.58 1001.69 1000.85 1000.12 999.52 999.08 998.79 998.64 998.63 998.71 998.85 999.04 999.23 999.40 999.55
1010.12 1009.98 1009.92 1009.89 1009.88 1009.85 1009.77 1009.62 1009.41 1009.15 1008.85 1008.54 1008.23 1007.94 1007.66 1007.37 1007.06 1006.69 1006.23 1005.68 1005.00 1004.22 1003.35 1002.43 1001.51 1000.63 999.83 999.16 998.63 998.25 998.02 997.92 997.93 998.02 998.16 998.32 998.48 998.62
1009.80 1009.63 1009.52 1009.45 1009.40 1009.32 1009.21 1009.03 1008.80 1008.52 1008.22 1007.91 1007.61 1007.33 1007.07 1006.81 1006.53 1006.21 1005.80 1005.29 1004.66 1003.92 1003.09 1002.19 1001.27 1000.38 999.55 998.83 998.24 997.79 997.48 997.30 997.22 997.23 997.29 997.39 997.50 997.62
1009.49 1009.28 1009.13 1009.01 1008.90 1008.78 1008.61 1008.39 1008.13 1007.82 1007.50 1007.18 1006.87 1006.60 1006.35 1006.11 1005.86 1005.57 1005.21 1004.75 1004.17 1003.49 1002.71 1001.86 1000.98 1000.11 999.29 998.55 997.93 997.42 997.04 996.77 996.60 996.50 996.46 996.47 996.50 996.57
1009.26 1009.01 1008.80 1008.63 1008.45 1008.26 1008.04 1007.77 1007.46 1007.12 1006.77 1006.43 1006.12 1005.84 1005.60 1005.37 1005.14 1004.88 1004.55 1004.13 1003.61 1002.99 1002.27 1001.48 1000.66 999.84 999.05 998.32 997.68 997.14 996.70 996.34 996.07 995.86 995.71 995.60 995.53 995.51
1009.12 1008.83 1008.58 1008.34 1008.09 1007.83 1007.53 1007.21 1006.85 1006.47 1006.10 1005.75 1005.43 1005.16 1004.92 1004.70 1004.48 1004.23 1003.93 1003.55 1003.07 1002.50 1001.84 1001.12 1000.36 999.59 998.85 998.15 997.51 996.94 996.45 996.02 995.64 995.32 995.04 994.81 994.63 994.52
1009.09 1008.76 1008.45 1008.14 1007.82 1007.48 1007.12 1006.74 1006.34 1005.94 1005.55 1005.20 1004.89 1004.63 1004.40 1004.19 1003.98 1003.74 1003.45 1003.08 1002.63 1002.09 1001.48 1000.81 1000.10 999.39 998.68 998.01 997.38 996.80 996.26 995.76 995.30 994.87 994.47 994.13 993.85 993.65
1009.12 1008.75 1008.38 1008.00 1007.62 1007.21 1006.80 1006.37 1005.95 1005.55 1005.18 1004.84 1004.56 1004.32 1004.10 1003.91 1003.70 1003.45 1003.15 1002.78 1002.33 1001.80 1001.20 1000.55 999.88 999.20 998.53 997.88 997.26 996.66 996.10 995.55 995.01 994.50 994.02 993.59 993.23 992.97
1009.14 1008.74 1008.32 1007.88 1007.44 1007.00 1006.55 1006.11 1005.70 1005.32 1004.99 1004.70 1004.46 1004.25 1004.07 1003.88 1003.66 1003.40 1003.07 1002.66 1002.18 1001.62 1001.00 1000.35 999.68 999.01 998.35 997.71 997.10 996.50 995.91 995.34 994.77 994.21 993.68 993.20 992.80 992.52
1009.10 1008.66 1008.21 1007.75 1007.28 1006.82 1006.38 1005.96 1005.59 1005.27 1005.00 1004.78 1004.60 1004.44 1004.27 1004.09 1003.85 1003.55 1003.17 1002.70 1002.15 1001.53 1000.86 1000.16 999.46 998.77 998.11 997.47 996.86 996.27 995.69 995.11 994.54 993.98 993.45 992.98 992.60 992.33
1008.95 1008.51 1008.05 1007.58 1007.12 1006.69 1006.29 1005.94 1005.64 1005.40 1005.21 1005.07 1004.95 1004.83 1004.68 1004.48 1004.21 1003.84 1003.38 1002.82 1002.17 1001.46 1000.71 999.94 999.19 998.47 997.79 997.15 996.55 995.97 995.42 994.87 994.34 993.83 993.35 992.93 992.61 992.40
1008.72 1008.29 1007.85 1007.42 1007.01 1006.64 1006.32 1006.05 1005.85 1005.71 1005.61 1005.54 1005.48 1005.38 1005.23 1004.99 1004.65 1004.19 1003.62 1002.94 1002.18 1001.36 1000.51 999.67 998.87 998.11 997.41 996.77 996.19 995.65 995.14 994.66 994.19 993.76 993.37 993.05 992.81 992.70
1008.44 1008.06 1007.68 1007.32 1006.99 1006.71 1006.49 1006.34 1006.24 1006.19 1006.17 1006.16 1006.11 1006.01 1005.82 1005.51 1005.07 1004.50 1003.80 1003.00 1002.11 1001.18 1000.25 999.34 998.48 997.70 997.00 996.38 995.84 995.35 994.91 994.51 994.13 993.80 993.52 993.30 993.18 993.17
1008.20 1007.89 1007.59 1007.33 1007.11 1006.94 1006.83 1006.78 1006.78 1006.80 1006.84 1006.84 1006.78 1006.63 1006.36 1005.95 1005.40 1004.70 1003.87 1002.94 1001.94 1000.92 999.92 998.96 998.09 997.31 996.63 996.05 995.56 995.15 994.79 994.47 994.19 993.96 993.78 993.67 993.64 993.72
1008.05 1007.84 1007.64 1007.49 1007.38 1007.33 1007.32 1007.36 1007.43 1007.49 1007.53 1007.51 1007.39 1007.16 1006.78 1006.24 1005.55 1004.72 1003.77 1002.73 1001.65 1000.58 999.54 998.58 997.72 996.98 996.36 995.84 995.43 995.09 994.81 994.58 994.39 994.24 994.13 994.09 994.13 994.26
Thickness
5746 5744 5742 5742 5740 5739 5738 5734 5729 5727 5731 5736 5737 5739 5736 5734 5731 5730 5730 5727 5724 5722 5721 5720 5719 5718 5718 5717 5716 5715 5715 5714 5713 5713 5713 5712 5712 5711
5740 5738 5736 5738 5737 5736 5734 5732 5730 5726 5725 5732 5732 5734 5731 5730 5727 5726 5725 5722 5721 5719 5718 5716 5715 5714 5714 5713 5712 5712 5711 5711 5709 5709 5709 5708 5708 5707
5736 5734 5732 5731 5731 5731 5730 5728 5726 5723 5719 5725 5727 5728 5724 5722 5721 5721 5721 5720 5720 5717 5714 5712 5711 5710 5710 5709 5708 5708 5707 5706 5706 5705 5704 5704 5704 5704
5731 5729 5727 5727 5724 5724 5723 5723 5722 5720 5717 5715 5718 5719 5717 5717 5715 5714 5717 5718 5716 5713 5711 5708 5707 5706 5705 5705 5704 5704 5703 5702 5701 5701 5700 5700 5699 5699
5727 5724 5723 5721 5718 5719 5717 5717 5717 5717 5714 5712 5712 5712 5712 5711 5709 5709 5711 5709 5711 5711 5707 5705 5703 5702 5701 5701 5700 5699 5698 5697 5697 5696 5695 5695 5694 5694
5723 5721 5719 5716 5714 5712 5712 5710 5710 5709 5708 5707 5706 5706 5705 5704 5702 5702 5703 5705 5705 5707 5704 5702 5700 5699 5698 5697 5696 5695 5694 5692 5691 5691 5690 5690 5689 5689
5718 5716 5715 5711 5708 5706 5706 5705 5703 5702 5702 5701 5700 5699 5698 5695 5695 5697 5697 5698 5699 5700 5699 5700 5699 5698 5697 5694 5691 5690 5689 5688 5686 5685 5685 5684 5684 5683
5712 5711 5710 5707 5703 5699 5697 5696 5694 5694 5694 5693 5693 5691 5689 5690 5689 5689 5689 5688 5688 5694 5691 5693 5695 5694 5694 5693 5689 5686 5684 5683 5681 5680 5680 5679 5679 5678
5705 5704 5704 5705 5699 5697 5693 5690 5689 5686 5684 5685 5686 5685 5684 5684 5681 5680 5679 5678 5679 5684 5683 5684 5688 5688 5690 5689 5684 5681 5679 5677 5676 5675 5675 5674 5674 5674
5699 5697 5695 5694 5693 5688 5687 5687 5686 5685 5683 5681 5680 5679 5679 5677 5675 5673 5672 5671 5673 5675 5675 5675 5680 5681 5684 5683 5678 5676 5673 5672 5671 5670 5669 5669 5669 5669
5693 5691 5688 5687 5682 5678 5678 5679 5678 5679 5678 5675 5673 5672 5670 5668 5667 5666 5666 5664 5665 5669 5670 5668 5671 5672 5675 5675 5674 5670 5668 5666 5665 5664 5664 5664 5663 5663
5686 5685 5680 5677 5673 5670 5670 5670 5670 5670 5671 5671 5668 5666 5665 5663 5660 5659 5660 5657 5657 5659 5663 5660 5661 5661 5663 5668 5668 5666 5663 5662 5660 5660 5659 5658 5657 5656
5679 5678 5677 5669 5666 5662 5660 5662 5661 5660 5662 5663 5662 5662 5660 5659 5657 5655 5653 5651 5651 5652 5655 5652 5652 5652 5652 5656 5658 5659 5659 5659 5658 5657 5655 5653 5652 5650
5669 5670 5668 5661 5658 5655 5654 5653 5651 5650 5654 5654 5655 5654 5653 5652 5651 5650 5647 5645 5644 5644 5644 5643 5643 5643 5643 5645 5648 5651 5652 5652 5652 5653 5652 5649 5646 5645
5661 5658 5655 5652 5650 5650 5648 5646 5644 5646 5646 5645 5645 5645 5645 5644 5644 5642 5641 5639 5637 5637 5638 5636 5636 5637 5636 5637 5639 5640 5641 5643 5645 5646 5646 5645 5643 5642
5652 5650 5647 5645 5644 5643 5643 5642 5642 5640 5639 5637 5637 5637 5637 5636 5634 5634 5632 5631 5630 5631 5631 5630 5629 5629 5630 5631 5631 5632 5633 5634 5636 5637 5637 5638 5638 5637
5641 5643 5644 5643 5642 5641 5640 5638 5636 5634 5631 5630 5629 5629 5628 5627 5627 5627 5625 5624 5623 5623 5623 5623 5623 5623 5623 5623 5624 5625 5625 5627 5628 5628 5627 5628 5629 5629
5631 5636 5636 5635 5633 5633 5632 5630 5628 5626 5624 5623 5622 5621 5620 5619 5618 5618 5618 5617 5616 5615 5615 5616 5616 5615 5616 5617 5615 5616 5618 5619 5620 5620 5620 5620 5621 5621
5625 5628 5627 5626 5625 5624 5623 5622 5620 5619 5616 5615 5614 5613 5612 5611 5611 5611 5610 5609 5609 5609 5608 5608 5608 5607 5607 5609 5610 5608 5610 5612 5613 5613 5613 5614 5614 5615
5621 5620 5619 5618 5617 5615 5614 5613 5612 5611 5608 5607 5606 5605 5604 5604 5603 5603 5603 5602 5602 5601 5602 5602 5601 5600 5600 5601 5603 5603 5601 5604 5605 5606 5608 5608 5608 5606
5613 5612 5611 5610 5609 5607 5605 5604 5603 5602 5600 5599 5599 5597 5597 5597 5596 5596 5596 5593 5593 5594 5594 5595 5595 5594 5595 5595 5595 5597 5597 5595 5596 5598 5600 5601 5602 5602
5604 5603 5602 5601 5600 5599 5597 5596 5595 5594 5593 5592 5592 5591 5591 5590 5590 5589 5589 5588 5587 5587 5587 5588 5588 5589 5589 5588 5590 5591 5592 5591 5590 5590 5591 5592 5595 5597
5596 5595 5594 5593 5592 5590 5589 5587 5587 5586 5586 5585 5585 5585 5585 5584 5584 5584 5583 5582 5581 5581 5581 5582 5583 5583 5583 5584 5585 5587 5587 5587 5588 5588 5587 5584 5584 5585